QPF
0.00 0.00 0.00 0.00 0.00 0.00 0.00 0.00 0.01 0.02 0.02 0.01 0.01 0.01 0.00 0.00 0.00 0.00 0.00 0.00 0.00 0.00 0.00 0.01 0.01 0.01 0.01 0.01 0.02 0.02 0.02 0.02 0.02 0.02 0.02 0.02 0.02 0.02 0.04 0.04 0.04 0.04 0.04 0.04 0.04 0.05 0.06 0.07 0.09
0.00 0.00 0.00 0.00 0.00 0.00 0.01 0.01 0.02 0.02 0.02 0.01 0.01 0.00 0.00 0.00 0.00 0.00 0.00 0.00 0.00 0.00 0.00 0.00 0.01 0.01 0.01 0.01 0.01 0.02 0.03 0.03 0.03 0.02 0.02 0.03 0.03 0.03 0.03 0.03 0.04 0.05 0.05 0.03 0.04 0.04 0.05 0.07 0.08
0.00 0.00 0.00 0.00 0.00 0.01 0.01 0.01 0.01 0.01 0.02 0.02 0.01 0.01 0.00 0.00 0.01 0.00 0.00 0.00 0.00 0.00 0.00 0.00 0.00 0.00 0.00 0.01 0.01 0.02 0.03 0.03 0.04 0.03 0.02 0.03 0.03 0.02 0.03 0.03 0.04 0.05 0.06 0.06 0.05 0.04 0.03 0.06 0.08
0.00 0.00 0.00 0.00 0.01 0.01 0.03 0.02 0.01 0.01 0.01 0.01 0.01 0.01 0.00 0.00 0.00 0.00 0.00 0.00 0.00 0.00 0.00 0.01 0.01 0.01 0.00 0.01 0.01 0.02 0.03 0.03 0.04 0.03 0.02 0.03 0.03 0.03 0.03 0.03 0.03 0.04 0.04 0.04 0.03 0.03 0.04 0.04 0.05
0.00 0.00 0.00 0.00 0.00 0.01 0.02 0.01 0.00 0.01 0.01 0.01 0.02 0.01 0.01 0.01 0.00 0.00 0.00 0.00 0.00 0.00 0.00 0.01 0.01 0.01 0.01 0.01 0.01 0.01 0.03 0.04 0.04 0.03 0.02 0.03 0.03 0.03 0.03 0.04 0.04 0.03 0.04 0.03 0.03 0.03 0.03 0.03 0.03
0.00 0.00 0.00 0.00 0.00 0.00 0.00 0.01 0.00 0.00 0.01 0.02 0.02 0.01 0.01 0.01 0.00 0.00 0.00 0.00 0.00 0.00 0.01 0.01 0.01 0.01 0.01 0.01 0.01 0.01 0.02 0.03 0.04 0.03 0.03 0.03 0.02 0.02 0.02 0.03 0.04 0.04 0.03 0.02 0.03 0.03 0.03 0.03 0.03
0.00 0.00 0.00 0.00 0.00 0.00 0.00 0.00 0.00 0.00 0.01 0.01 0.01 0.01 0.01 0.01 0.01 0.00 0.00 0.00 0.00 0.00 0.01 0.01 0.01 0.01 0.01 0.01 0.01 0.01 0.01 0.02 0.02 0.02 0.02 0.02 0.02 0.02 0.02 0.02 0.03 0.03 0.02 0.02 0.01 0.02 0.03 0.04 0.03
0.00 0.00 0.00 0.00 0.00 0.00 0.00 0.00 0.00 0.00 0.00 0.01 0.00 0.01 0.01 0.01 0.01 0.01 0.00 0.00 0.00 0.01 0.01 0.01 0.01 0.02 0.01 0.01 0.01 0.01 0.01 0.01 0.01 0.01 0.02 0.02 0.02 0.02 0.02 0.02 0.02 0.03 0.02 0.02 0.02 0.02 0.03 0.04 0.03
0.00 0.00 0.00 0.00 0.00 0.00 0.00 0.00 0.00 0.00 0.00 0.00 0.00 0.00 0.00 0.01 0.01 0.01 0.01 0.00 0.00 0.00 0.00 0.01 0.01 0.01 0.01 0.01 0.01 0.02 0.02 0.01 0.01 0.01 0.02 0.02 0.01 0.01 0.01 0.02 0.02 0.02 0.03 0.03 0.03 0.02 0.02 0.03 0.03
0.00 0.00 0.00 0.00 0.00 0.00 0.00 0.00 0.00 0.00 0.00 0.00 0.00 0.00 0.01 0.01 0.01 0.02 0.02 0.01 0.00 0.00 0.01 0.01 0.02 0.02 0.02 0.02 0.02 0.01 0.01 0.02 0.02 0.01 0.02 0.01 0.00 0.01 0.01 0.02 0.03 0.03 0.03 0.04 0.04 0.03 0.03 0.02 0.02
0.00 0.00 0.00 0.00 0.00 0.00 0.00 0.00 0.00 0.00 0.00 0.00 0.00 0.00 0.01 0.01 0.01 0.02 0.02 0.02 0.01 0.01 0.01 0.00 0.01 0.01 0.02 0.03 0.04 0.03 0.02 0.02 0.01 0.01 0.02 0.01 0.00 0.00 0.01 0.01 0.02 0.02 0.02 0.03 0.03 0.03 0.02 0.01 0.01
0.00 0.00 0.00 0.00 0.00 0.00 0.00 0.00 0.00 0.00 0.00 0.00 0.00 0.00 0.01 0.01 0.01 0.02 0.02 0.02 0.02 0.01 0.01 0.01 0.01 0.02 0.04 0.05 0.04 0.03 0.02 0.01 0.01 0.01 0.01 0.01 0.01 0.00 0.00 0.00 0.01 0.01 0.01 0.01 0.02 0.01 0.01 0.01 0.01
0.00 0.00 0.00 0.00 0.00 0.00 0.00 0.00 0.00 0.00 0.00 0.00 0.00 0.01 0.01 0.01 0.01 0.01 0.02 0.03 0.03 0.02 0.02 0.03 0.03 0.03 0.03 0.05 0.05 0.03 0.02 0.01 0.00 0.01 0.02 0.01 0.01 0.00 0.00 0.00 0.01 0.01 0.02 0.02 0.01 0.01 0.00 0.00 0.00
0.00 0.00 0.00 0.00 0.00 0.00 0.00 0.00 0.00 0.00 0.00 0.00 0.01 0.01 0.01 0.02 0.01 0.01 0.01 0.02 0.02 0.02 0.03 0.03 0.03 0.03 0.04 0.05 0.06 0.04 0.02 0.01 0.01 0.01 0.02 0.01 0.01 0.00 0.00 0.00 0.00 0.01 0.02 0.02 0.01 0.01 0.01 0.00 0.01
0.00 0.00 0.00 0.00 0.00 0.00 0.00 0.00 0.00 0.00 0.00 0.00 0.01 0.02 0.02 0.02 0.02 0.01 0.01 0.02 0.01 0.01 0.01 0.02 0.02 0.02 0.02 0.03 0.04 0.04 0.03 0.02 0.02 0.01 0.01 0.01 0.01 0.01 0.00 0.00 0.01 0.02 0.02 0.02 0.01 0.01 0.01 0.01 0.01
0.00 0.00 0.00 0.00 0.00 0.00 0.00 0.00 0.00 0.00 0.00 0.01 0.01 0.02 0.02 0.03 0.02 0.02 0.03 0.02 0.02 0.01 0.01 0.02 0.01 0.01 0.01 0.01 0.03 0.06 0.06 0.06 0.06 0.03 0.02 0.01 0.01 0.01 0.01 0.01 0.01 0.02 0.02 0.02 0.02 0.03 0.02 0.02 0.02
0.00 0.00 0.00 0.00 0.00 0.00 0.00 0.00 0.00 0.00 0.00 0.00 0.01 0.02 0.03 0.02 0.02 0.02 0.02 0.02 0.01 0.01 0.01 0.01 0.01 0.02 0.01 0.02 0.04 0.08 0.12 0.11 0.07 0.05 0.04 0.04 0.03 0.02 0.01 0.01 0.01 0.01 0.02 0.02 0.02 0.03 0.03 0.04 0.04
0.00 0.00 0.00 0.00 0.00 0.00 0.00 0.00 0.00 0.00 0.00 0.00 0.00 0.01 0.02 0.03 0.03 0.04 0.02 0.01 0.01 0.01 0.01 0.01 0.01 0.02 0.01 0.02 0.04 0.07 0.12 0.15 0.12 0.08 0.05 0.05 0.05 0.04 0.02 0.01 0.01 0.02 0.02 0.02 0.03 0.04 0.05 0.05 0.05
0.00 0.00 0.00 0.00 0.00 0.00 0.00 0.00 0.00 0.00 0.00 0.00 0.01 0.02 0.02 0.03 0.03 0.03 0.02 0.01 0.00 0.01 0.01 0.01 0.02 0.01 0.01 0.02 0.02 0.05 0.09 0.13 0.15 0.11 0.06 0.05 0.05 0.05 0.05 0.04 0.02 0.03 0.03 0.03 0.04 0.05 0.05 0.05 0.05
0.00 0.00 0.00 0.00 0.00 0.00 0.00 0.00 0.00 0.00 0.00 0.00 0.01 0.02 0.02 0.03 0.03 0.03 0.02 0.01 0.01 0.00 0.01 0.01 0.02 0.01 0.01 0.02 0.03 0.04 0.07 0.09 0.12 0.12 0.09 0.06 0.06 0.07 0.06 0.06 0.05 0.05 0.05 0.05 0.06 0.07 0.07 0.07 0.08
0.00 0.00 0.00 0.00 0.00 0.00 0.00 0.00 0.00 0.00 0.01 0.01 0.00 0.01 0.01 0.01 0.02 0.04 0.03 0.02 0.01 0.01 0.01 0.02 0.02 0.01 0.02 0.03 0.05 0.06 0.07 0.06 0.06 0.06 0.06 0.05 0.05 0.06 0.07 0.06 0.04 0.05 0.06 0.07 0.08 0.09 0.11 0.12 0.11
0.00 0.00 0.00 0.00 0.00 0.00 0.00 0.00 0.00 0.00 0.00 0.00 0.00 0.01 0.01 0.02 0.03 0.04 0.04 0.02 0.02 0.02 0.02 0.02 0.02 0.02 0.03 0.03 0.03 0.05 0.05 0.03 0.02 0.02 0.02 0.03 0.03 0.04 0.06 0.09 0.08 0.07 0.07 0.07 0.07 0.08 0.08 0.08 0.08
0.00 0.00 0.00 0.00 0.00 0.00 0.00 0.00 0.00 0.00 0.00 0.00 0.00 0.01 0.01 0.03 0.03 0.03 0.05 0.05 0.03 0.03 0.03 0.03 0.03 0.03 0.03 0.04 0.05 0.03 0.02 0.02 0.02 0.02 0.02 0.02 0.02 0.03 0.06 0.09 0.08 0.07 0.06 0.06 0.07 0.09 0.08 0.08 0.08
0.00 0.00 0.00 0.00 0.00 0.00 0.00 0.00 0.00 0.00 0.00 0.00 0.01 0.01 0.02 0.03 0.04 0.05 0.06 0.05 0.04 0.05 0.05 0.04 0.04 0.05 0.05 0.06 0.06 0.05 0.05 0.05 0.04 0.02 0.02 0.01 0.01 0.03 0.05 0.07 0.07 0.06 0.05 0.04 0.04 0.05 0.05 0.05 0.05
0.00 0.00 0.00 0.00 0.00 0.00 0.00 0.00 0.00 0.00 0.01 0.01 0.01 0.02 0.02 0.04 0.05 0.05 0.05 0.04 0.04 0.05 0.06 0.06 0.06 0.06 0.07 0.09 0.09 0.10 0.10 0.10 0.10 0.07 0.06 0.04 0.04 0.03 0.02 0.03 0.03 0.03 0.03 0.03 0.03 0.04 0.04 0.04 0.04
0.00 0.00 0.00 0.00 0.00 0.00 0.00 0.00 0.01 0.01 0.01 0.01 0.01 0.02 0.02 0.04 0.04 0.04 0.03 0.03 0.04 0.06 0.08 0.05 0.03 0.05 0.06 0.09 0.08 0.10 0.12 0.12 0.10 0.09 0.07 0.06 0.06 0.05 0.04 0.04 0.05 0.05 0.05 0.04 0.04 0.04 0.03 0.04 0.05
0.00 0.00 0.00 0.00 0.00 0.00 0.00 0.00 0.01 0.00 0.01 0.02 0.03 0.02 0.02 0.03 0.03 0.03 0.04 0.04 0.05 0.06 0.10 0.05 0.03 0.03 0.03 0.05 0.07 0.11 0.10 0.09 0.07 0.06 0.06 0.06 0.08 0.07 0.06 0.05 0.05 0.06 0.07 0.06 0.05 0.04 0.03 0.04 0.05
0.00 0.00 0.00 0.00 0.00 0.00 0.00 0.01 0.01 0.01 0.02 0.04 0.03 0.02 0.02 0.02 0.02 0.03 0.04 0.05 0.04 0.05 0.06 0.03 0.02 0.02 0.02 0.03 0.04 0.06 0.08 0.08 0.07 0.06 0.07 0.07 0.07 0.07 0.07 0.08 0.07 0.06 0.06 0.05 0.04 0.04 0.05 0.05 0.06
0.00 0.00 0.00 0.00 0.00 0.01 0.01 0.01 0.01 0.01 0.02 0.03 0.02 0.02 0.02 0.03 0.02 0.03 0.03 0.03 0.04 0.03 0.03 0.03 0.02 0.02 0.03 0.04 0.06 0.04 0.05 0.07 0.09 0.09 0.09 0.08 0.09 0.11 0.10 0.08 0.08 0.07 0.07 0.06 0.04 0.04 0.05 0.05 0.05
0.00 0.01 0.01 0.01 0.01 0.01 0.01 0.01 0.02 0.01 0.02 0.02 0.03 0.04 0.03 0.03 0.03 0.02 0.01 0.02 0.02 0.02 0.03 0.03 0.02 0.02 0.03 0.04 0.07 0.08 0.08 0.08 0.09 0.09 0.09 0.09 0.09 0.10 0.13 0.13 0.09 0.07 0.08 0.09 0.08 0.07 0.08 0.08 0.06
MSLP
1004.01 1005.24 1006.82 1008.53 1010.16 1011.52 1012.49 1013.03 1013.20 1013.07 1012.80 1012.52 1012.31 1012.22 1012.23 1012.30 1012.38 1012.40 1012.35 1012.23 1012.08 1011.93 1011.82 1011.78 1011.80 1011.87 1011.96 1012.04 1012.09 1012.12 1012.13 1012.17 1012.24 1012.38 1012.57 1012.77 1012.96 1013.10 1013.16 1013.11 1012.99 1012.82 1012.64 1012.49 1012.40 1012.38 1012.43 1012.52 1012.63
1004.54 1005.95 1007.64 1009.38 1010.93 1012.12 1012.86 1013.13 1013.02 1012.64 1012.17 1011.74 1011.45 1011.33 1011.37 1011.51 1011.67 1011.80 1011.86 1011.86 1011.81 1011.76 1011.74 1011.77 1011.86 1011.97 1012.09 1012.18 1012.25 1012.30 1012.34 1012.42 1012.55 1012.73 1012.97 1013.21 1013.42 1013.56 1013.60 1013.54 1013.39 1013.19 1012.99 1012.83 1012.74 1012.72 1012.76 1012.84 1012.95
1005.39 1006.93 1008.65 1010.31 1011.70 1012.67 1013.14 1013.13 1012.76 1012.17 1011.55 1011.04 1010.72 1010.62 1010.71 1010.91 1011.15 1011.36 1011.50 1011.58 1011.60 1011.63 1011.68 1011.78 1011.91 1012.08 1012.23 1012.37 1012.46 1012.54 1012.61 1012.72 1012.88 1013.09 1013.34 1013.59 1013.80 1013.93 1013.95 1013.87 1013.71 1013.50 1013.30 1013.15 1013.07 1013.05 1013.11 1013.20 1013.30
1006.51 1008.09 1009.76 1011.27 1012.44 1013.14 1013.34 1013.08 1012.50 1011.77 1011.08 1010.54 1010.25 1010.20 1010.35 1010.61 1010.91 1011.16 1011.35 1011.46 1011.53 1011.60 1011.70 1011.84 1012.03 1012.24 1012.44 1012.61 1012.73 1012.84 1012.93 1013.05 1013.22 1013.43 1013.68 1013.92 1014.11 1014.22 1014.22 1014.12 1013.96 1013.77 1013.59 1013.46 1013.40 1013.41 1013.48 1013.58 1013.69
1007.78 1009.33 1010.85 1012.16 1013.06 1013.49 1013.43 1012.97 1012.26 1011.47 1010.78 1010.29 1010.08 1010.11 1010.33 1010.66 1010.98 1011.26 1011.45 1011.56 1011.64 1011.73 1011.85 1012.03 1012.26 1012.50 1012.72 1012.91 1013.06 1013.17 1013.27 1013.40 1013.55 1013.76 1013.98 1014.20 1014.37 1014.46 1014.45 1014.35 1014.20 1014.03 1013.88 1013.78 1013.76 1013.80 1013.88 1013.99 1014.10
1009.04 1010.47 1011.80 1012.85 1013.48 1013.64 1013.37 1012.78 1012.01 1011.25 1010.63 1010.26 1010.16 1010.30 1010.61 1010.97 1011.33 1011.59 1011.77 1011.87 1011.93 1012.02 1012.15 1012.34 1012.59 1012.84 1013.08 1013.27 1013.42 1013.52 1013.61 1013.72 1013.86 1014.05 1014.26 1014.46 1014.61 1014.69 1014.68 1014.60 1014.47 1014.32 1014.21 1014.14 1014.15 1014.21 1014.31 1014.42 1014.53
1010.14 1011.40 1012.48 1013.24 1013.59 1013.53 1013.10 1012.44 1011.70 1011.03 1010.55 1010.34 1010.39 1010.65 1011.03 1011.45 1011.80 1012.06 1012.21 1012.29 1012.35 1012.43 1012.56 1012.75 1012.99 1013.24 1013.47 1013.65 1013.77 1013.86 1013.93 1014.02 1014.14 1014.31 1014.51 1014.70 1014.86 1014.95 1014.96 1014.89 1014.78 1014.66 1014.58 1014.54 1014.56 1014.64 1014.75 1014.86 1014.97
1010.96 1012.01 1012.81 1013.28 1013.38 1013.13 1012.60 1011.93 1011.27 1010.73 1010.43 1010.39 1010.60 1010.98 1011.44 1011.89 1012.26 1012.51 1012.66 1012.73 1012.78 1012.86 1013.00 1013.19 1013.42 1013.66 1013.86 1014.00 1014.09 1014.15 1014.20 1014.26 1014.38 1014.55 1014.75 1014.96 1015.13 1015.24 1015.27 1015.23 1015.15 1015.05 1014.98 1014.96 1014.99 1015.07 1015.17 1015.29 1015.39
1011.47 1012.27 1012.80 1013.00 1012.88 1012.47 1011.89 1011.25 1010.69 1010.32 1010.20 1010.33 1010.67 1011.15 1011.68 1012.16 1012.55 1012.81 1012.97 1013.06 1013.13 1013.24 1013.39 1013.59 1013.82 1014.03 1014.20 1014.31 1014.36 1014.39 1014.41 1014.47 1014.59 1014.76 1014.98 1015.21 1015.41 1015.55 1015.61 1015.60 1015.53 1015.45 1015.39 1015.36 1015.39 1015.47 1015.57 1015.67 1015.77
1011.68 1012.25 1012.52 1012.47 1012.16 1011.66 1011.05 1010.47 1010.02 1009.80 1009.83 1010.09 1010.54 1011.10 1011.67 1012.19 1012.59 1012.88 1013.07 1013.21 1013.33 1013.48 1013.67 1013.90 1014.12 1014.32 1014.47 1014.54 1014.57 1014.57 1014.57 1014.63 1014.76 1014.95 1015.20 1015.46 1015.69 1015.86 1015.96 1015.97 1015.91 1015.84 1015.78 1015.74 1015.76 1015.82 1015.91 1016.00 1016.09
1011.69 1012.03 1012.08 1011.84 1011.40 1010.82 1010.22 1009.70 1009.35 1009.24 1009.38 1009.73 1010.25 1010.84 1011.43 1011.96 1012.39 1012.71 1012.96 1013.16 1013.35 1013.57 1013.81 1014.07 1014.31 1014.51 1014.64 1014.70 1014.71 1014.69 1014.70 1014.76 1014.90 1015.12 1015.40 1015.69 1015.95 1016.15 1016.27 1016.29 1016.26 1016.18 1016.11 1016.07 1016.07 1016.11 1016.19 1016.28 1016.35
1011.58 1011.75 1011.62 1011.26 1010.72 1010.11 1009.53 1009.07 1008.79 1008.76 1008.95 1009.34 1009.86 1010.44 1011.03 1011.55 1012.00 1012.36 1012.66 1012.94 1013.21 1013.50 1013.80 1014.10 1014.37 1014.58 1014.72 1014.78 1014.79 1014.78 1014.80 1014.88 1015.04 1015.28 1015.57 1015.88 1016.16 1016.38 1016.51 1016.55 1016.53 1016.47 1016.40 1016.34 1016.34 1016.37 1016.43 1016.50 1016.56
1011.47 1011.51 1011.28 1010.83 1010.26 1009.65 1009.10 1008.69 1008.46 1008.45 1008.65 1009.01 1009.49 1010.03 1010.57 1011.08 1011.53 1011.92 1012.28 1012.62 1012.97 1013.32 1013.68 1014.02 1014.32 1014.55 1014.71 1014.79 1014.83 1014.85 1014.90 1015.00 1015.17 1015.42 1015.72 1016.03 1016.31 1016.53 1016.67 1016.73 1016.72 1016.67 1016.61 1016.57 1016.56 1016.58 1016.63 1016.69 1016.73
1011.43 1011.39 1011.10 1010.64 1010.08 1009.51 1009.01 1008.63 1008.42 1008.39 1008.54 1008.83 1009.23 1009.69 1010.17 1010.64 1011.08 1011.49 1011.89 1012.28 1012.68 1013.08 1013.48 1013.85 1014.18 1014.45 1014.64 1014.77 1014.85 1014.91 1014.99 1015.11 1015.30 1015.54 1015.83 1016.12 1016.39 1016.60 1016.75 1016.82 1016.84 1016.81 1016.78 1016.75 1016.75 1016.78 1016.82 1016.86 1016.88
1011.46 1011.39 1011.10 1010.67 1010.17 1009.66 1009.21 1008.86 1008.64 1008.57 1008.64 1008.83 1009.11 1009.47 1009.87 1010.29 1010.71 1011.13 1011.55 1011.97 1012.40 1012.82 1013.24 1013.63 1013.98 1014.28 1014.52 1014.70 1014.84 1014.96 1015.08 1015.23 1015.42 1015.64 1015.90 1016.16 1016.40 1016.60 1016.74 1016.84 1016.88 1016.90 1016.90 1016.91 1016.94 1016.97 1017.02 1017.04 1017.03
1011.55 1011.48 1011.24 1010.89 1010.47 1010.04 1009.65 1009.31 1009.06 1008.91 1008.88 1008.94 1009.10 1009.35 1009.66 1010.03 1010.42 1010.84 1011.27 1011.70 1012.13 1012.55 1012.97 1013.37 1013.74 1014.07 1014.36 1014.60 1014.81 1014.99 1015.16 1015.33 1015.51 1015.71 1015.93 1016.14 1016.35 1016.53 1016.67 1016.79 1016.87 1016.94 1017.00 1017.05 1017.11 1017.17 1017.22 1017.23 1017.20
1011.65 1011.62 1011.46 1011.21 1010.90 1010.56 1010.21 1009.88 1009.57 1009.33 1009.16 1009.08 1009.11 1009.24 1009.48 1009.79 1010.16 1010.58 1011.00 1011.43 1011.86 1012.27 1012.68 1013.07 1013.45 1013.82 1014.16 1014.47 1014.75 1015.00 1015.21 1015.40 1015.58 1015.75 1015.92 1016.09 1016.25 1016.41 1016.57 1016.71 1016.84 1016.96 1017.08 1017.19 1017.28 1017.36 1017.42 1017.42 1017.38
1011.71 1011.74 1011.68 1011.55 1011.36 1011.11 1010.80 1010.45 1010.07 1009.70 1009.38 1009.15 1009.03 1009.06 1009.22 1009.49 1009.85 1010.27 1010.70 1011.14 1011.55 1011.96 1012.35 1012.74 1013.13 1013.53 1013.92 1014.30 1014.65 1014.96 1015.22 1015.44 1015.61 1015.75 1015.88 1016.00 1016.14 1016.28 1016.44 1016.62 1016.80 1016.98 1017.15 1017.31 1017.44 1017.54 1017.61 1017.62 1017.57
1011.70 1011.82 1011.89 1011.90 1011.83 1011.65 1011.36 1010.97 1010.48 1009.97 1009.48 1009.07 1008.81 1008.72 1008.81 1009.05 1009.41 1009.85 1010.31 1010.76 1011.19 1011.59 1011.98 1012.37 1012.78 1013.21 1013.66 1014.10 1014.52 1014.89 1015.19 1015.42 1015.59 1015.72 1015.81 1015.91 1016.02 1016.16 1016.34 1016.54 1016.77 1017.00 1017.22 1017.42 1017.58 1017.70 1017.77 1017.78 1017.74
1011.60 1011.85 1012.07 1012.23 1012.28 1012.17 1011.89 1011.42 1010.81 1010.11 1009.43 1008.84 1008.42 1008.22 1008.23 1008.46 1008.83 1009.30 1009.80 1010.28 1010.74 1011.16 1011.57 1011.97 1012.41 1012.87 1013.36 1013.86 1014.34 1014.76 1015.11 1015.36 1015.54 1015.65 1015.73 1015.82 1015.92 1016.07 1016.27 1016.51 1016.78 1017.05 1017.30 1017.52 1017.70 1017.82 1017.89 1017.91 1017.89
1011.42 1011.84 1012.24 1012.56 1012.73 1012.69 1012.39 1011.83 1011.06 1010.17 1009.28 1008.50 1007.91 1007.58 1007.53 1007.73 1008.12 1008.63 1009.19 1009.73 1010.23 1010.69 1011.12 1011.56 1012.02 1012.52 1013.06 1013.60 1014.13 1014.59 1014.97 1015.26 1015.45 1015.57 1015.65 1015.73 1015.85 1016.03 1016.26 1016.53 1016.84 1017.13 1017.40 1017.62 1017.79 1017.91 1017.97 1017.99 1017.99
1011.18 1011.80 1012.41 1012.91 1013.21 1013.22 1012.89 1012.23 1011.30 1010.22 1009.11 1008.12 1007.37 1006.92 1006.79 1006.96 1007.37 1007.92 1008.53 1009.13 1009.68 1010.19 1010.66 1011.13 1011.63 1012.16 1012.73 1013.32 1013.88 1014.39 1014.80 1015.11 1015.32 1015.46 1015.57 1015.68 1015.83 1016.03 1016.30 1016.61 1016.93 1017.25 1017.52 1017.72 1017.87 1017.96 1018.00 1018.03 1018.03
1010.91 1011.76 1012.58 1013.27 1013.68 1013.74 1013.39 1012.64 1011.56 1010.28 1008.98 1007.80 1006.89 1006.32 1006.11 1006.25 1006.66 1007.23 1007.88 1008.53 1009.14 1009.68 1010.20 1010.70 1011.23 1011.79 1012.39 1013.01 1013.60 1014.14 1014.58 1014.92 1015.16 1015.34 1015.47 1015.63 1015.82 1016.07 1016.38 1016.72 1017.07 1017.38 1017.64 1017.83 1017.93 1017.99 1018.00 1018.01 1018.02
1010.61 1011.68 1012.72 1013.57 1014.11 1014.22 1013.85 1013.02 1011.82 1010.40 1008.93 1007.60 1006.55 1005.87 1005.59 1005.68 1006.06 1006.64 1007.30 1007.97 1008.60 1009.17 1009.71 1010.24 1010.79 1011.39 1012.01 1012.66 1013.28 1013.84 1014.32 1014.69 1014.97 1015.18 1015.37 1015.57 1015.82 1016.11 1016.46 1016.84 1017.20 1017.52 1017.76 1017.91 1017.98 1017.99 1017.97 1017.96 1017.97
1010.27 1011.54 1012.76 1013.76 1014.39 1014.55 1014.17 1013.30 1012.03 1010.51 1008.94 1007.51 1006.36 1005.60 1005.25 1005.28 1005.62 1006.16 1006.79 1007.45 1008.07 1008.64 1009.19 1009.73 1010.30 1010.91 1011.57 1012.23 1012.89 1013.48 1014.00 1014.41 1014.74 1015.00 1015.24 1015.49 1015.79 1016.14 1016.52 1016.92 1017.30 1017.61 1017.84 1017.97 1018.01 1017.98 1017.93 1017.89 1017.89
1009.88 1011.29 1012.64 1013.73 1014.43 1014.62 1014.26 1013.38 1012.08 1010.54 1008.94 1007.48 1006.30 1005.49 1005.09 1005.05 1005.32 1005.79 1006.35 1006.94 1007.52 1008.06 1008.58 1009.12 1009.70 1010.34 1011.02 1011.73 1012.42 1013.07 1013.62 1014.09 1014.47 1014.78 1015.08 1015.38 1015.72 1016.11 1016.53 1016.95 1017.34 1017.66 1017.88 1017.98 1018.00 1017.95 1017.88 1017.81 1017.80
1009.45 1010.92 1012.31 1013.44 1014.16 1014.36 1014.01 1013.16 1011.91 1010.41 1008.86 1007.44 1006.28 1005.47 1005.04 1004.94 1005.12 1005.48 1005.94 1006.42 1006.91 1007.39 1007.87 1008.39 1008.98 1009.65 1010.37 1011.13 1011.88 1012.58 1013.20 1013.73 1014.16 1014.53 1014.88 1015.23 1015.61 1016.03 1016.47 1016.91 1017.31 1017.63 1017.84 1017.95 1017.96 1017.90 1017.82 1017.74 1017.72
1008.98 1010.43 1011.77 1012.85 1013.53 1013.72 1013.40 1012.60 1011.44 1010.06 1008.63 1007.32 1006.25 1005.47 1005.03 1004.88 1004.96 1005.19 1005.51 1005.85 1006.22 1006.60 1007.03 1007.53 1008.13 1008.83 1009.61 1010.44 1011.26 1012.04 1012.74 1013.34 1013.84 1014.27 1014.66 1015.05 1015.46 1015.90 1016.35 1016.80 1017.21 1017.53 1017.76 1017.87 1017.89 1017.84 1017.76 1017.69 1017.66
1008.52 1009.85 1011.06 1012.02 1012.60 1012.75 1012.44 1011.72 1010.69 1009.47 1008.22 1007.08 1006.13 1005.44 1005.01 1004.80 1004.78 1004.87 1005.03 1005.22 1005.44 1005.72 1006.08 1006.56 1007.17 1007.91 1008.76 1009.67 1010.59 1011.47 1012.25 1012.93 1013.51 1014.00 1014.44 1014.86 1015.29 1015.74 1016.21 1016.66 1017.07 1017.40 1017.64 1017.77 1017.81 1017.78 1017.72 1017.66 1017.62
1008.10 1009.24 1010.26 1011.04 1011.49 1011.57 1011.26 1010.62 1009.74 1008.71 1007.68 1006.73 1005.94 1005.34 1004.94 1004.69 1004.57 1004.51 1004.50 1004.53 1004.61 1004.78 1005.08 1005.53 1006.16 1006.95 1007.87 1008.88 1009.90 1010.87 1011.76 1012.53 1013.18 1013.74 1014.23 1014.69 1015.15 1015.60 1016.07 1016.52 1016.93 1017.27 1017.52 1017.67 1017.74 1017.74 1017.70 1017.66 1017.62
Thickness
5815 5813 5809 5800 5781 5760 5759 5773 5784 5789 5795 5806 5809 5804 5796 5791 5784 5781 5803 5810 5808 5802 5797 5793 5789 5784 5782 5779 5777 5775 5773 5772 5770 5769 5767 5766 5765 5764 5762 5761 5760 5760 5760 5760 5759 5759 5757 5756 5755
5814 5811 5803 5789 5765 5747 5757 5779 5785 5794 5804 5810 5811 5807 5800 5797 5804 5802 5805 5807 5807 5802 5797 5792 5788 5784 5781 5778 5776 5773 5771 5770 5768 5767 5765 5764 5762 5761 5760 5759 5758 5758 5758 5757 5757 5756 5756 5755 5754
5814 5811 5792 5775 5760 5752 5766 5786 5792 5803 5812 5811 5806 5807 5802 5800 5806 5806 5809 5808 5804 5800 5795 5791 5787 5783 5779 5777 5774 5772 5770 5768 5766 5764 5763 5761 5760 5759 5758 5757 5756 5756 5755 5755 5755 5754 5754 5753 5752
5809 5798 5784 5767 5763 5770 5779 5791 5799 5801 5808 5812 5806 5800 5805 5813 5812 5812 5811 5807 5802 5797 5793 5789 5785 5781 5778 5775 5772 5770 5768 5766 5765 5763 5761 5759 5758 5756 5756 5755 5754 5753 5753 5753 5753 5752 5752 5751 5750
5803 5785 5768 5756 5764 5778 5790 5799 5803 5800 5803 5808 5805 5797 5799 5811 5815 5813 5809 5804 5799 5795 5791 5788 5784 5780 5776 5774 5771 5769 5766 5765 5763 5761 5759 5757 5755 5754 5753 5753 5752 5751 5751 5751 5751 5750 5750 5749 5748
5786 5774 5754 5750 5764 5783 5795 5804 5805 5802 5803 5807 5804 5796 5799 5810 5810 5808 5806 5801 5798 5793 5789 5786 5782 5778 5775 5772 5770 5767 5765 5763 5760 5758 5756 5755 5753 5752 5751 5750 5749 5748 5748 5748 5748 5748 5748 5747 5746
5778 5765 5756 5759 5764 5777 5796 5808 5804 5801 5801 5805 5808 5795 5798 5804 5807 5806 5802 5798 5794 5790 5786 5783 5780 5777 5774 5771 5768 5766 5764 5761 5758 5756 5754 5753 5751 5750 5748 5747 5747 5746 5746 5746 5746 5746 5746 5745 5744
5785 5767 5760 5758 5764 5776 5799 5806 5808 5804 5803 5815 5813 5797 5795 5804 5806 5802 5798 5793 5790 5786 5783 5780 5777 5774 5771 5769 5767 5764 5762 5759 5757 5754 5752 5751 5749 5748 5747 5746 5745 5744 5744 5744 5744 5744 5744 5743 5743
5786 5759 5751 5762 5769 5781 5798 5799 5806 5813 5809 5811 5813 5811 5812 5810 5804 5796 5790 5786 5784 5782 5780 5778 5775 5772 5769 5767 5764 5762 5760 5757 5755 5753 5751 5749 5747 5746 5745 5744 5743 5743 5742 5742 5741 5742 5741 5741 5741
5774 5753 5763 5779 5785 5789 5795 5797 5800 5802 5798 5801 5804 5807 5810 5806 5799 5792 5787 5783 5780 5779 5777 5776 5773 5770 5767 5765 5762 5760 5758 5755 5753 5751 5749 5747 5745 5744 5743 5742 5741 5741 5740 5739 5739 5739 5739 5739 5738
5773 5766 5778 5786 5793 5794 5793 5797 5802 5796 5791 5799 5801 5801 5802 5799 5795 5791 5788 5785 5782 5780 5777 5774 5772 5768 5765 5763 5760 5757 5755 5753 5751 5749 5748 5746 5744 5742 5741 5740 5739 5738 5738 5737 5736 5736 5736 5736 5736
5772 5778 5783 5789 5795 5793 5792 5796 5796 5797 5801 5813 5811 5807 5802 5796 5793 5792 5788 5785 5782 5779 5776 5774 5771 5767 5764 5761 5758 5756 5753 5751 5749 5747 5745 5743 5742 5740 5739 5737 5737 5736 5735 5735 5734 5734 5733 5733 5733
5771 5778 5787 5792 5791 5792 5793 5792 5793 5797 5809 5812 5810 5804 5800 5796 5794 5792 5790 5785 5781 5777 5774 5772 5770 5766 5763 5759 5757 5754 5752 5749 5747 5745 5743 5742 5740 5738 5737 5735 5734 5733 5732 5732 5731 5731 5730 5730 5730
5774 5778 5782 5787 5789 5792 5790 5790 5790 5796 5805 5804 5801 5798 5798 5795 5793 5789 5786 5783 5780 5777 5774 5772 5768 5765 5762 5759 5756 5753 5751 5749 5746 5744 5742 5741 5739 5737 5735 5733 5731 5731 5730 5729 5729 5728 5727 5727 5727
5774 5770 5774 5782 5786 5789 5787 5777 5784 5796 5798 5795 5794 5794 5793 5792 5792 5789 5787 5784 5782 5778 5775 5771 5768 5764 5760 5757 5754 5752 5749 5746 5744 5742 5741 5739 5737 5736 5734 5732 5730 5729 5728 5727 5726 5725 5724 5724 5724
5765 5757 5752 5771 5780 5784 5775 5759 5783 5792 5790 5787 5788 5789 5788 5787 5788 5789 5788 5784 5781 5777 5774 5771 5768 5763 5760 5756 5753 5750 5747 5744 5742 5741 5738 5737 5735 5734 5732 5730 5728 5727 5726 5724 5723 5722 5721 5720 5720
5742 5736 5742 5757 5773 5774 5766 5758 5778 5786 5784 5781 5783 5784 5785 5784 5784 5785 5786 5783 5780 5776 5773 5769 5766 5763 5759 5755 5751 5748 5745 5743 5740 5738 5736 5735 5733 5731 5730 5728 5727 5725 5724 5722 5721 5719 5718 5717 5717
5730 5733 5738 5744 5761 5762 5755 5756 5771 5778 5778 5776 5779 5780 5781 5781 5782 5783 5782 5781 5778 5775 5771 5768 5764 5760 5756 5752 5748 5744 5742 5740 5737 5736 5734 5733 5731 5729 5727 5726 5725 5723 5721 5720 5718 5717 5716 5714 5713
5739 5736 5733 5744 5759 5753 5748 5751 5762 5770 5771 5771 5773 5775 5776 5778 5781 5780 5778 5777 5774 5771 5768 5764 5760 5756 5752 5748 5744 5740 5737 5736 5734 5733 5733 5731 5729 5727 5725 5724 5722 5721 5719 5718 5716 5714 5712 5710 5709
5735 5730 5730 5741 5753 5750 5743 5746 5758 5763 5765 5768 5769 5771 5772 5773 5774 5774 5773 5772 5769 5767 5765 5761 5758 5754 5751 5747 5743 5740 5737 5734 5732 5730 5729 5729 5726 5724 5723 5721 5720 5719 5717 5715 5713 5711 5709 5707 5706
5732 5728 5730 5732 5741 5745 5739 5735 5747 5758 5762 5765 5766 5768 5769 5769 5768 5768 5768 5766 5765 5764 5762 5760 5756 5752 5748 5744 5739 5736 5732 5730 5728 5727 5726 5726 5724 5722 5721 5719 5718 5716 5715 5713 5711 5710 5707 5704 5702
5723 5740 5737 5734 5723 5716 5726 5709 5733 5745 5750 5755 5758 5761 5762 5764 5764 5763 5763 5761 5761 5761 5759 5756 5752 5748 5744 5741 5737 5733 5729 5726 5725 5724 5723 5722 5720 5719 5718 5716 5715 5714 5712 5710 5709 5707 5706 5703 5699
5734 5742 5736 5731 5719 5710 5713 5705 5718 5735 5738 5746 5752 5756 5758 5760 5760 5759 5758 5757 5757 5756 5753 5751 5748 5744 5741 5739 5735 5731 5728 5726 5723 5720 5718 5717 5716 5715 5714 5713 5712 5710 5709 5707 5706 5704 5702 5701 5698
5740 5732 5723 5710 5702 5692 5706 5699 5705 5721 5732 5741 5747 5751 5752 5754 5755 5753 5752 5751 5751 5750 5748 5744 5741 5739 5737 5734 5732 5728 5725 5722 5718 5716 5713 5712 5712 5711 5711 5710 5709 5707 5706 5703 5702 5701 5699 5697 5695
5727 5706 5686 5684 5675 5683 5704 5698 5704 5728 5736 5739 5741 5743 5746 5748 5748 5747 5746 5745 5745 5744 5742 5739 5736 5733 5732 5729 5727 5724 5722 5719 5716 5714 5711 5709 5708 5707 5708 5707 5705 5704 5703 5701 5699 5697 5695 5693 5691
5715 5706 5682 5671 5669 5679 5694 5691 5709 5730 5735 5737 5738 5738 5740 5740 5741 5742 5742 5741 5741 5739 5737 5735 5732 5729 5727 5725 5723 5720 5718 5715 5714 5712 5709 5706 5705 5705 5705 5703 5702 5700 5699 5697 5695 5692 5691 5689 5687
5708 5699 5702 5680 5676 5672 5679 5693 5710 5724 5726 5728 5729 5730 5730 5732 5734 5735 5735 5736 5736 5734 5732 5730 5728 5726 5723 5721 5719 5716 5713 5711 5710 5709 5707 5705 5702 5702 5700 5699 5697 5695 5693 5692 5690 5688 5686 5685 5683
5715 5702 5683 5673 5663 5662 5676 5685 5693 5709 5713 5718 5719 5720 5722 5725 5727 5728 5729 5730 5730 5728 5727 5726 5723 5721 5719 5716 5714 5712 5709 5708 5706 5705 5702 5700 5698 5697 5695 5694 5692 5690 5688 5687 5685 5684 5683 5681 5679
5700 5694 5682 5669 5668 5661 5659 5677 5706 5707 5709 5710 5712 5714 5715 5717 5718 5720 5722 5723 5723 5722 5720 5719 5717 5715 5712 5710 5709 5707 5705 5702 5701 5699 5698 5696 5694 5693 5691 5689 5687 5685 5683 5682 5681 5679 5678 5676 5675
5702 5693 5681 5670 5666 5663 5660 5674 5706 5705 5706 5705 5706 5708 5709 5709 5711 5712 5713 5715 5714 5714 5713 5712 5710 5709 5707 5704 5702 5700 5699 5697 5695 5694 5692 5691 5689 5688 5686 5684 5682 5681 5679 5678 5676 5675 5674 5672 5671